When you browse on this site, cookies collect data to enhance your experience and personalize the content and advertising you see.
Visit our Privacy Policy to learn more. By continuing to use the site, you agree to this use of cookies and data.
  • In Portugal
  • List of Countries
  • For 7 days
  • Water Temperature
  • Satellite Maps
  • Weather Map
  • Weather Widgets
  • user-avatar
    Login

    Hourly Weather Babruysk

    Today, 27 May, Monday

    Time Temperature Precipitation Wind Pressure Humidity
    00:00 +9°C° 0 mm 2 mps 745 mmHg 93%
    01:00 +9°C° 0 mm 2 mps 745 mmHg 93%
    02:00 +10°C° 0 mm 2 mps 745 mmHg 94%
    03:00 +10°C° 0 mm 2 mps 745 mmHg 93%
    04:00 +10°C° 0 mm 3 mps 745 mmHg 92%
    05:00 +11°C° 0 mm 3 mps 745 mmHg 91%
    06:00 +13°C° 0 mm 3 mps 745 mmHg 83%
    07:00 +15°C° 0 mm 4 mps 745 mmHg 76%
    08:00 +19°C° 0 mm 4 mps 745 mmHg 66%
    09:00 +20°C° 0 mm 4 mps 745 mmHg 62%
    10:00 +21°C° 0 mm 5 mps 745 mmHg 57%
    11:00 +23°C° 0 mm 5 mps 745 mmHg 52%
    12:00 +23°C° 0 mm 5 mps 745 mmHg 50%
    13:00 +25°C° 0 mm 5 mps 745 mmHg 49%
    14:00 +26°C° 0 mm 5 mps 745 mmHg 47%
    15:00 +26°C° 0 mm 5 mps 745 mmHg 49%
    16:00 +26°C° 0 mm 4 mps 745 mmHg 51%
    17:00 +26°C° 0 mm 4 mps 745 mmHg 52%
    18:00 +24°C° 0.1 mm 3 mps 745 mmHg 61%
    19:00 +21°C° 0.1 mm 3 mps 745 mmHg 70%
    20:00 +19°C° 0.1 mm 2 mps 745 mmHg 78%
    21:00 +18°C° 0 mm 2 mps 745 mmHg 82%
    22:00 +17°C° 0 mm 2 mps 745 mmHg 85%
    23:00 +16°C° 0 mm 2 mps 746 mmHg 89%

    Tomorrow, 28 May, Tuesday

    Time Temperature Precipitation Wind Pressure Humidity
    00:00 +16°C° 0 mm 2 mps 746 mmHg 90%
    01:00 +16°C° 0 mm 2 mps 746 mmHg 92%
    02:00 +16°C° 0 mm 2 mps 746 mmHg 93%
    03:00 +16°C° 0 mm 2 mps 746 mmHg 93%
    04:00 +16°C° 0 mm 2 mps 745 mmHg 93%
    05:00 +17°C° 0 mm 3 mps 745 mmHg 93%
    06:00 +18°C° 0 mm 3 mps 745 mmHg 87%
    07:00 +20°C° 0 mm 4 mps 745 mmHg 82%
    08:00 +21°C° 0 mm 5 mps 745 mmHg 76%
    09:00 +23°C° 0 mm 6 mps 745 mmHg 67%
    10:00 +24°C° 0 mm 7 mps 745 mmHg 57%
    11:00 +27°C° 0 mm 7 mps 745 mmHg 47%
    12:00 +27°C° 0 mm 7 mps 744 mmHg 47%
    13:00 +27°C° 0 mm 7 mps 744 mmHg 47%
    14:00 +27°C° 0 mm 7 mps 744 mmHg 47%
    15:00 +26°C° 0 mm 7 mps 744 mmHg 50%
    16:00 +26°C° 0 mm 7 mps 744 mmHg 54%
    17:00 +24°C° 0 mm 7 mps 744 mmHg 57%
    18:00 +23°C° 0 mm 6 mps 744 mmHg 61%
    19:00 +22°C° 0 mm 5 mps 744 mmHg 65%
    20:00 +21°C° 0 mm 5 mps 744 mmHg 69%
    21:00 +21°C° 0 mm 5 mps 744 mmHg 71%
    22:00 +20°C° 0 mm 5 mps 744 mmHg 72%
    23:00 +20°C° 0 mm 5 mps 744 mmHg 73%

    Day after tomorrow, 29 May, Wednesday

    Time Temperature Precipitation Wind Pressure Humidity
    00:00 +20°C° 0 mm 5 mps 744 mmHg 74%
    01:00 +19°C° 0 mm 5 mps 744 mmHg 74%
    02:00 +19°C° 0 mm 5 mps 745 mmHg 75%
    03:00 +18°C° 0 mm 4 mps 744 mmHg 76%
    04:00 +18°C° 0 mm 4 mps 744 mmHg 76%
    05:00 +17°C° 0 mm 4 mps 744 mmHg 77%
    06:00 +18°C° 0 mm 4 mps 745 mmHg 72%
    07:00 +19°C° 0 mm 5 mps 745 mmHg 68%
    08:00 +21°C° 0 mm 6 mps 745 mmHg 63%
    09:00 +22°C° 0 mm 6 mps 745 mmHg 61%
    10:00 +23°C° 0 mm 6 mps 745 mmHg 60%
    11:00 +24°C° 0 mm 6 mps 745 mmHg 58%
    12:00 +26°C° 0 mm 6 mps 745 mmHg 59%
    13:00 +26°C° 0 mm 6 mps 746 mmHg 60%
    14:00 +26°C° 0 mm 6 mps 746 mmHg 60%
    15:00 +26°C° 2.1 mm 5 mps 746 mmHg 66%
    16:00 +25°C° 2.1 mm 5 mps 745 mmHg 72%
    17:00 +23°C° 2.1 mm 4 mps 745 mmHg 77%
    18:00 +22°C° 2.4 mm 3 mps 746 mmHg 81%
    19:00 +21°C° 2.4 mm 3 mps 746 mmHg 85%
    20:00 +19°C° 2.4 mm 2 mps 747 mmHg 90%
    21:00 +19°C° 0.4 mm 2 mps 747 mmHg 90%
    22:00 +20°C° 0.4 mm 1 mps 747 mmHg 91%
    23:00 +19°C° 0.4 mm 1 mps 747 mmHg 92%

    30 May, Thursday

    Time Temperature Precipitation Wind Pressure Humidity
    00:00 +19°C° 0 mm 1 mps 747 mmHg 93%
    01:00 +19°C° 0 mm 1 mps 747 mmHg 94%
    02:00 +18°C° 0 mm 1 mps 747 mmHg 94%
    03:00 +18°C° 0.1 mm 1 mps 747 mmHg 95%
    04:00 +18°C° 0.1 mm 1 mps 747 mmHg 95%
    05:00 +17°C° 0.1 mm 2 mps 747 mmHg 96%
    06:00 +19°C° 0.6 mm 1 mps 747 mmHg 93%
    07:00 +21°C° 0.6 mm 1 mps 747 mmHg 90%
    08:00 +22°C° 0.6 mm 1 mps 747 mmHg 87%
    09:00 +23°C° 1.4 mm 2 mps 747 mmHg 81%
    10:00 +24°C° 1.4 mm 2 mps 747 mmHg 75%
    11:00 +25°C° 1.4 mm 2 mps 747 mmHg 69%
    12:00 +25°C° 1.1 mm 3 mps 747 mmHg 69%
    13:00 +26°C° 1.1 mm 3 mps 747 mmHg 70%
    14:00 +26°C° 1.1 mm 3 mps 747 mmHg 70%
    15:00 +25°C° 2.2 mm 3 mps 747 mmHg 74%
    16:00 +24°C° 2.2 mm 3 mps 748 mmHg 78%
    17:00 +23°C° 2.2 mm 2 mps 748 mmHg 81%
    18:00 +21°C° 0 mm 3 mps 748 mmHg 85%
    19:00 +19°C° 0 mm 3 mps 748 mmHg 89%
    20:00 +18°C° 0 mm 3 mps 748 mmHg 93%
    21:00 +17°C° 0 mm 3 mps 749 mmHg 94%
    22:00 +16°C° 0 mm 3 mps 749 mmHg 96%
    23:00 +13°C° 0 mm 3 mps 749 mmHg 97%

    31 May, Friday

    Time Temperature Precipitation Wind Pressure Humidity
    00:00 +14°C° 0 mm 2 mps 749 mmHg 97%
    01:00 +14°C° 0 mm 2 mps 750 mmHg 97%
    02:00 +13°C° 0 mm 2 mps 750 mmHg 97%
    03:00 +14°C° 0 mm 2 mps 750 mmHg 96%
    04:00 +14°C° 0 mm 2 mps 750 mmHg 94%
    05:00 +14°C° 0 mm 3 mps 750 mmHg 92%
    06:00 +14°C° 0 mm 3 mps 751 mmHg 90%
    07:00 +14°C° 0 mm 3 mps 751 mmHg 89%
    08:00 +16°C° 0 mm 3 mps 751 mmHg 87%
    09:00 +17°C° 0 mm 3 mps 751 mmHg 81%
    10:00 +19°C° 0 mm 2 mps 751 mmHg 75%
    11:00 +20°C° 0 mm 2 mps 751 mmHg 69%
    12:00 +21°C° 0 mm 2 mps 751 mmHg 66%
    13:00 +22°C° 0 mm 3 mps 751 mmHg 63%
    14:00 +24°C° 0 mm 3 mps 751 mmHg 59%
    15:00 +22°C° 0 mm 3 mps 751 mmHg 61%
    16:00 +22°C° 0 mm 3 mps 751 mmHg 64%
    17:00 +22°C° 0 mm 3 mps 751 mmHg 66%
    18:00 +21°C° 0 mm 3 mps 751 mmHg 67%
    19:00 +19°C° 0 mm 3 mps 751 mmHg 69%
    20:00 +18°C° 0 mm 3 mps 751 mmHg 71%
    21:00 +18°C° 0 mm 3 mps 751 mmHg 67%
    22:00 +17°C° 0 mm 3 mps 751 mmHg 64%
    23:00 +16°C° 0 mm 3 mps 751 mmHg 61%

    1 June, Saturday

    Time Temperature Precipitation Wind Pressure Humidity
    00:00 +16°C° 0 mm 3 mps 751 mmHg 62%
    01:00 +14°C° 0 mm 3 mps 751 mmHg 62%
    02:00 +13°C° 0 mm 3 mps 751 mmHg 63%
    03:00 +13°C° 0 mm 3 mps 751 mmHg 65%
    04:00 +13°C° 0 mm 3 mps 751 mmHg 67%
    05:00 +13°C° 0 mm 3 mps 751 mmHg 68%
    06:00 +16°C° 0 mm 3 mps 751 mmHg 65%
    07:00 +17°C° 0 mm 4 mps 752 mmHg 61%
    08:00 +19°C° 0 mm 4 mps 752 mmHg 57%
    09:00 +20°C° 0 mm 4 mps 752 mmHg 56%
    10:00 +22°C° 0 mm 5 mps 752 mmHg 54%
    11:00 +23°C° 0 mm 5 mps 751 mmHg 52%
    12:00 +23°C° 0 mm 5 mps 751 mmHg 52%
    13:00 +25°C° 0 mm 5 mps 751 mmHg 53%
    14:00 +25°C° 0 mm 5 mps 751 mmHg 53%
    15:00 +25°C° 0 mm 5 mps 751 mmHg 56%
    16:00 +23°C° 0 mm 5 mps 751 mmHg 58%
    17:00 +23°C° 0 mm 4 mps 751 mmHg 61%
    18:00 +21°C° 0 mm 4 mps 751 mmHg 66%
    19:00 +20°C° 0 mm 3 mps 751 mmHg 72%
    20:00 +18°C° 0 mm 3 mps 751 mmHg 77%
    21:00 +17°C° 0 mm 3 mps 751 mmHg 79%
    22:00 +17°C° 0 mm 3 mps 751 mmHg 81%
    23:00 +16°C° 0 mm 3 mps 751 mmHg 83%
    Show more